Location: Isola Pescaroli
(45.0500°N, 10.1667°E)
Time: 19:31:24
(UTC+00:00)

Cosmos 2333 Rocket - Pass Details

Date: 03 March 2021
Orbit: 837 x 864 km, 70.8° (Epoch: 17 April)

Event Time Altitude Azimuth Distance (km) Brightness Sun altitude
Rises 18:46:22 0° 187° (S) 3,384 5.3 -17.9°
Reaches altitude 10° 18:48:51 10° 182° (S) 2,457 4.5 -18.3°
Maximum altitude 18:54:17 50° 109° (ESE) 1,073 2.3 -19.2°
Drops below altitude 10° 18:59:46 10° 35° (NE) 2,490 4.4 -20.2°
Sets 19:02:18 0° 31° (NNE) 3,435 5.2 -20.6°
